User: anonymous   Login
Location: Unspecified
(0.0000°N, 0.0000°E)
Time: 03:27:33
(UTC+00:00)
Language:

USA 81 - Orbit

View from above orbital plane
View from above orbital plane
View from above satellite
View from above satellite

Ground track
Ground track

The orbit data is extracted from the following two-line orbital elements,

1 21949U 92023A   17304.23126125 0.00000030  00000-0  11333-4 0    09
2 21949  85.0057  90.1402 0002000  75.2775 284.7224 14.31393224    04
Epoch (UTC): 31 October 2017 05:33:00
Eccentricity: 0.0002000
inclination: 85.0057°
perigee height: 785 km
apogee height: 788 km
right ascension of ascending node: 90.1402°
argument of perigee: 75.2775°
revolutions per day: 14.31393224
mean anomaly at epoch: 284.7224°
orbit number at epoch: 0

The dashed part of the orbit path shows where the satellite is in the earth's shadow,  

DLR